Weather in Stevenage

United Kingdom     51°54′12″N   0°11′08″E
temp.,
°C
wind,
m/s
gust,
m/s
humid.,
%
clouds,
%
prec.,
mm/h
press.,
hPa
HPBL,
m
6 may, thu
thu601:00+1w339095 0.2 100936
04:00+1wsw2289100 0.0 100724
07:00+3sw2488100 0.0 1006134
10:00+5wnw4589100 0.1 1006622
13:00+6nw238199 0.5 1006558
16:00+9nw575933 0.5 10051471
19:00+7wnw59650 0.8 1006504
22:00+2w47895 0.1 1009127
7 may, fri
fri701:00+2wnw511965 0.1 1010286
04:000wnw39971 0.0 1012164
07:00+2w39937 0.0 1014247
10:00+9nw566933 0.0 10161112
13:00+11w565184 0.2 10162081
16:00+11w565289 0.0 10161888
19:00+9wsw347237 0.1 1016226
22:00+5ssw3488100 0.1 101657
8 may, sat
sat801:00+3ssw349498 0.1 101563
04:00+4sse4986100 0.0 1013226
07:00+5se61490100 0.6 1009409
10:00+7se91897100 4.3 1004718
13:00+11s81797100 9.3 1002949
16:00+12ssw91896100 2.4 1001871
19:00+14ssw9188987 2.7 10001018
22:00+12ssw818880 0.0 1001842
9 may, sun
sun901:00+11s616900 0.0 1000589
04:00+9s6149567 0.0 998409
07:00+11sse514875 0.0 997356
10:00+17s711686 0.0 995865
13:00+19s8116188 0.0 9941766
16:00+16sw91680100 0.9 9951522
19:00+13ssw61174100 1.0 996822
22:00+10s410825 0.0 997261
10 may, mon
mon1001:00+9s51288100 0.0 997371
04:00+10ssw71388100 0.0 998748
07:00+11ssw81375100 0.0 9991118
10:00+13ssw9137340 0.2 10001459
13:00+15ssw1013585 0.5 10011854
16:00+15ssw812625 0.1 10021965
19:00+13ssw611695 0.1 10031030
22:00+8s3984100 0.0 1003184